Regional Weather Roundup
Issued by NWS

Home | Current Version | Previous Version | Text Only | Print | Product List | Glossary On
Versions: 1 2 3 4 5 6 7 8 9 10 11 12 13 14 15 16 17 18 19 20 21 22 23 24 25 26 27
000
ASUS44 KBMX 190210
RWRAL

ALABAMA REGIONAL WEATHER ROUNDUP
NATIONAL WEATHER SERVICE BIRMINGHAM AL
900 PM CDT FRI AUG 18 2017

NOTE: "FAIR" INDICATES FEW OR NO CLOUDS BELOW 12,000 FEET
WITH NO SIGNIFICANT WEATHER AND/OR OBSTRUCTIONS TO VISIBILITY.

THE REMARK "TC" DENOTES TEMPERATURE IN DEGREES CELSIUS.

ALZ001>011-014-016>018-020-190300-
NORTH ALABAMA

CITY           SKY/WX    TMP DP  RH WIND       PRES   REMARKS
MUSCLE SHOALS  CLEAR     74  68  81 E3        30.01R
HUNTSVILLE     CLEAR     75  71  87 CALM      30.00R
DECATUR        CLEAR     73  70  90 CALM      30.00R
HALEYVILLE     FAIR      73  72  96 CALM      30.03S
GADSDEN        CLEAR     75  72  90 CALM      30.00R
$$

ALZ012-013-022-023-030>036-040>044-190300-
WEST CENTRAL ALABAMA

CITY           SKY/WX    TMP DP  RH WIND       PRES   REMARKS
TUSCALOOSA     CLEAR     78  76  93 CALM      29.98S
DEMOPOLIS        N/A     79  78  95 CALM      29.99R
$$

ALZ015-024>026-033>036-041>044-190300-
CENTRAL ALABAMA

CITY           SKY/WX    TMP DP  RH WIND       PRES   REMARKS
BIRMINGHAM     CLEAR     79  69  71 CALM      30.02S
MONTGOMERY     CLEAR     80  72  76 CALM      29.98R
SHELBY CO ARPT CLEAR     78  75  90 CALM      30.00R
MAXWELL AFB    CLEAR     78  74  86 CALM      29.97R
GREENVILLE     FAIR      79  74  84 CALM      29.99R
SELMA          FAIR      77  75  94 CALM      29.98S
PRATTVILLE       N/A     77  74  91 CALM      29.97S
BESSEMER       FAIR      75  71  87 CALM      30.01S
TALLADEGA      FAIR     N/A N/A N/A MISG      30.00R
PELL CITY      CLEAR     73  73 100 CALM      30.00R
MARION         FAIR      77  76  97 CALM      29.99R
SYLACAUGA      FAIR      76  76 100 CALM      30.00S
$$

ALZ019-021-028-029-037-038-045>048-190300-
EAST CENTRAL ALABAMA

CITY           SKY/WX    TMP DP  RH WIND       PRES   REMARKS
ANNISTON       CLEAR     76  72  87 CALM      30.00R
ALEXANDER CITY CLEAR     76  72  86 CALM      30.01S
AUBURN         NOT AVBL
$$

ALZ051>064-190300-
SOUTHWEST ALABAMA

CITY           SKY/WX    TMP DP  RH WIND       PRES   REMARKS
MOBILE         CLOUDY    78  73  84 SW7       30.01F
BROOKLEY FIELD CLOUDY    80  78  94 SW3       30.01F
EVERGREEN      CLEAR     79  76  90 CALM      29.99S
$$

ALZ049-050-065>069-190300-
SOUTHEAST ALABAMA

CITY           SKY/WX    TMP DP  RH WIND       PRES   REMARKS
DOTHAN         CLOUDY    85  74  69 NW7       30.01S HX  92
OZARK          CLEAR     82  74  77 CALM      29.98R
TROY           CLEAR     78  76  93 CALM      30.00R
EUFAULA        FAIR      77  75  93 CALM      29.97R
$$




USA.gov is the U.S. government's official web portal to all federal, state and local government web resources and services.